| time (UTC) | temp F | wind direction | speed MPH | gust MPH | rain 1hr in | rain 24hr in | rain mn in | humidity % | barometer mb |
| 20260905123715 | 76 | 65 | 2.0 | 5.0 | 0.00 | 0.00 | 0.00 | 92 | 1011.4 |
| 20260905123209 | 76 | 73 | 3.0 | 5.0 | 0.00 | 0.00 | 0.00 | 92 | 1011.4 |
| 20260905122700 | 76 | 53 | 3.0 | 5.0 | 0.00 | 0.00 | 0.00 | 92 | 1011.0 |
| 20260905122159 | 76 | 55 | 3.0 | 5.0 | 0.00 | 0.00 | 0.00 | 92 | 1011.0 |
| 20260905121659 | 76 | 59 | 3.0 | 5.0 | 0.00 | 0.00 | 0.00 | 92 | 1011.0 |
| 20260905121158 | 76 | 57 | 2.0 | 4.0 | 0.00 | 0.00 | 0.00 | 92 | 1010.9 |
| 20260905120927 | 76 | 61 | 3.0 | 4.0 | 0.00 | 0.00 | 0.00 | 92 | 1010.9 |
| 20260905120200 | 76 | 61 | 3.0 | 4.0 | 0.00 | 0.00 | 0.00 | 92 | 1010.9 |
| 20260905115659 | 76 | 56 | 3.0 | 4.0 | 0.00 | 0.00 | 0.00 | 92 | 1010.8 |
| 20260905114658 | 76 | 64 | 2.0 | 4.0 | 0.00 | 0.00 | 0.00 | 92 | 1010.8 |
| 20260905114424 | 76 | 55 | 3.0 | 4.0 | 0.00 | 0.00 | 0.00 | 92 | 1010.8 |
| 20260905113649 | 76 | 56 | 3.0 | 4.0 | 0.00 | 0.00 | 0.00 | 92 | 1010.8 |
| 20260905113148 | 76 | 60 | 3.0 | 5.0 | 0.00 | 0.00 | 0.00 | 92 | 1010.8 |
| 20260905112648 | 76 | 55 | 3.0 | 5.0 | 0.00 | 0.00 | 0.00 | 92 | 1010.7 |
| 20260905112149 | 76 | 56 | 3.0 | 5.0 | 0.00 | 0.00 | 0.00 | 92 | 1010.7 |
| 20260905111650 | 76 | 54 | 3.0 | 4.0 | 0.00 | 0.00 | 0.00 | 92 | 1010.7 |
| 20260905111149 | 76 | 55 | 3.0 | 4.0 | 0.00 | 0.00 | 0.00 | 92 | 1010.7 |
| 20260905110146 | 76 | 53 | 3.0 | 5.0 | 0.00 | 0.00 | 0.00 | 92 | 1010.7 |
| 20260905105639 | 76 | 59 | 4.0 | 5.0 | 0.00 | 0.00 | 0.00 | 92 | 1010.5 |
| 20260905105137 | 76 | 51 | 4.0 | 6.0 | 0.00 | 0.00 | 0.00 | 92 | 1010.5 |
| 20260905104636 | 76 | 57 | 4.0 | 6.0 | 0.00 | 0.00 | 0.00 | 92 | 1010.5 |
| 20260905104133 | 76 | 55 | 4.0 | 6.0 | 0.00 | 0.00 | 0.00 | 92 | 1010.4 |
| 20260905103634 | 76 | 55 | 3.0 | 5.0 | 0.00 | 0.00 | 0.00 | 92 | 1010.4 |
| 20260905103133 | 76 | 63 | 3.0 | 5.0 | 0.00 | 0.00 | 0.00 | 92 | 1010.4 |
| 20260905102634 | 76 | 61 | 3.0 | 5.0 | 0.00 | 0.00 | 0.00 | 92 | 1010.3 |
| 20260905102133 | 76 | 68 | 4.0 | 5.0 | 0.00 | 0.00 | 0.00 | 92 | 1010.3 |
| 20260905101633 | 76 | 72 | 3.0 | 4.0 | 0.00 | 0.00 | 0.00 | 92 | 1010.3 |
| 20260905101131 | 76 | 76 | 3.0 | 4.0 | 0.00 | 0.00 | 0.00 | 92 | 1010.3 |
| 20260905100626 | 76 | 78 | 1.0 | 4.0 | 0.00 | 0.00 | 0.00 | 92 | 1010.3 |
| 20260905100120 | 76 | 78 | 1.0 | 3.0 | 0.00 | 0.00 | 0.00 | 92 | 1010.3 |
| 20260905095614 | 76 | 78 | 2.0 | 3.0 | 0.00 | 0.00 | 0.00 | 92 | 1010.3 |
| 20260905095114 | 76 | 78 | 2.0 | 3.0 | 0.00 | 0.00 | 0.00 | 91 | 1010.3 |
| 20260905094611 | 76 | 78 | 2.0 | 3.0 | 0.00 | 0.00 | 0.00 | 91 | 1010.3 |
| 20260905094110 | 76 | 78 | 2.0 | 3.0 | 0.00 | 0.00 | 0.00 | 91 | 1010.3 |
| 20260905093611 | 76 | 78 | 1.0 | 2.0 | 0.00 | 0.00 | 0.00 | 91 | 1010.3 |
| 20260905093109 | 76 | 78 | 0.0 | 2.0 | 0.00 | 0.00 | 0.00 | 91 | 1010.3 |
| 20260905092607 | 76 | 78 | 0.0 | 2.0 | 0.00 | 0.00 | 0.00 | 91 | 1010.3 |
| 20260905092108 | 76 | 78 | 0.0 | 2.0 | 0.00 | 0.00 | 0.00 | 91 | 1010.3 |
| 20260905091106 | 76 | 78 | 0.0 | 0.0 | 0.00 | 0.00 | 0.00 | 91 | 1010.3 |
| 20260905090607 | 76 | 79 | 0.0 | 0.0 | 0.00 | 0.00 | 0.00 | 91 | 1010.3 |
| 20260905085552 | 76 | 78 | 0.0 | 0.0 | 0.00 | 0.00 | 0.00 | 91 | 1010.2 |
| 20260905085045 | 76 | 79 | 0.0 | 0.0 | 0.00 | 0.00 | 0.00 | 91 | 1010.2 |
| 20260905084540 | 76 | 79 | 0.0 | 0.0 | 0.00 | 0.00 | 0.00 | 91 | 1010.2 |
| 20260905084033 | 76 | 79 | 0.0 | 0.0 | 0.00 | 0.00 | 0.00 | 90 | 1010.0 |
| 20260905083742 | 76 | 79 | 0.0 | 0.0 | 0.00 | 0.00 | 0.00 | 90 | 1010.0 |
| 20260905083014 | 77 | 79 | 0.0 | 0.0 | 0.00 | 0.00 | 0.00 | 90 | 1010.3 |
| 20260905082503 | 77 | 79 | 0.0 | 0.0 | 0.00 | 0.00 | 0.00 | 90 | 1010.3 |
| 20260905081957 | 77 | 79 | 0.0 | 1.0 | 0.00 | 0.00 | 0.00 | 91 | 1010.3 |
| 20260905081453 | 77 | 79 | 0.0 | 1.0 | 0.00 | 0.00 | 0.00 | 90 | 1010.3 |
| 20260905080951 | 77 | 79 | 0.0 | 1.0 | 0.00 | 0.00 | 0.00 | 90 | 1010.3 |
| 20260905080450 | 77 | 79 | 0.0 | 1.0 | 0.00 | 0.00 | 0.00 | 90 | 1010.3 |
| 20260905075947 | 77 | 78 | 0.0 | 0.0 | 0.00 | 0.00 | 0.00 | 90 | 1010.4 |
| 20260905075444 | 78 | 78 | 0.0 | 0.0 | 0.00 | 0.00 | 0.00 | 90 | 1010.4 |
| 20260905074942 | 78 | 78 | 0.0 | 3.0 | 0.00 | 0.00 | 0.00 | 91 | 1010.4 |
| 20260905074703 | 78 | 78 | 1.0 | 4.0 | 0.00 | 0.00 | 0.00 | 91 | 1010.6 |
| 20260905073941 | 78 | 78 | 1.0 | 4.0 | 0.00 | 0.00 | 0.00 | 91 | 1010.6 |
| 20260905073441 | 78 | 78 | 2.0 | 4.0 | 0.00 | 0.00 | 0.00 | 91 | 1010.6 |
| 20260905072939 | 78 | 79 | 1.0 | 4.0 | 0.00 | 0.00 | 0.00 | 90 | 1010.7 |
| 20260905072440 | 78 | 103 | 1.0 | 3.0 | 0.00 | 0.00 | 0.00 | 90 | 1010.7 |
| 20260905071935 | 78 | 157 | 2.0 | 3.0 | 0.00 | 0.00 | 0.00 | 90 | 1010.7 |
| 20260905071434 | 78 | 159 | 2.0 | 3.0 | 0.00 | 0.00 | 0.00 | 90 | 1010.8 |
| 20260905071158 | 78 | 159 | 1.0 | 3.0 | 0.00 | 0.00 | 0.00 | 91 | 1010.8 |
| 20260905070434 | 78 | 159 | 1.0 | 3.0 | 0.00 | 0.00 | 0.00 | 91 | 1010.8 |
| 20260905070153 | 78 | 159 | 2.0 | 3.0 | 0.00 | 0.00 | 0.00 | 91 | 1010.8 |
| 20260905065436 | 78 | 159 | 2.0 | 5.0 | 0.00 | 0.00 | 0.00 | 91 | 1010.8 |
| 20260905064935 | 78 | 159 | 3.0 | 5.0 | 0.00 | 0.00 | 0.00 | 91 | 1010.8 |
| 20260905064655 | 78 | 159 | 3.0 | 6.0 | 0.00 | 0.00 | 0.00 | 91 | 1010.8 |
| 20260905064142 | 78 | 166 | 4.0 | 6.0 | 0.00 | 0.00 | 0.00 | 90 | 1010.8 |
| 20260905063641 | 78 | 170 | 3.0 | 5.0 | 0.00 | 0.00 | 0.00 | 90 | 1010.8 |
| 20260905062920 | 78 | 167 | 3.0 | 5.0 | 0.00 | 0.00 | 0.00 | 90 | 1010.8 |
| 20260905062420 | 78 | 165 | 3.0 | 4.0 | 0.00 | 0.00 | 0.00 | 90 | 1010.8 |
| 20260905061921 | 78 | 160 | 3.0 | 4.0 | 0.00 | 0.00 | 0.00 | 90 | 1010.8 |
| 20260905061421 | 78 | 153 | 3.0 | 5.0 | 0.00 | 0.00 | 0.00 | 89 | 1010.8 |
| 20260905060921 | 78 | 139 | 3.0 | 5.0 | 0.00 | 0.00 | 0.00 | 89 | 1010.8 |
| 20260905060419 | 79 | 134 | 2.0 | 4.0 | 0.00 | 0.00 | 0.00 | 89 | 1010.8 |
| 20260905055645 | 79 | 120 | 3.0 | 4.0 | 0.00 | 0.00 | 0.00 | 89 | 1010.7 |
| 20260905054917 | 79 | 118 | 3.0 | 4.0 | 0.00 | 0.00 | 0.00 | 89 | 1010.7 |
| 20260905054407 | 79 | 120 | 2.0 | 4.0 | 0.00 | 0.00 | 0.00 | 89 | 1010.8 |
| 20260905053900 | 79 | 120 | 2.0 | 4.0 | 0.00 | 0.00 | 0.00 | 89 | 1010.8 |
| 20260905053351 | 79 | 120 | 2.0 | 4.0 | 0.00 | 0.00 | 0.00 | 89 | 1010.8 |
| 20260905052844 | 79 | 120 | 2.0 | 4.0 | 0.00 | 0.00 | 0.00 | 89 | 1010.9 |
| 20260905052344 | 79 | 120 | 3.0 | 4.0 | 0.00 | 0.00 | 0.00 | 89 | 1010.9 |
| 20260905051845 | 79 | 120 | 3.0 | 5.0 | 0.00 | 0.00 | 0.00 | 89 | 1010.9 |
| 20260905051341 | 79 | 120 | 3.0 | 5.0 | 0.00 | 0.00 | 0.00 | 89 | 1011.0 |
| 20260905050841 | 80 | 130 | 3.0 | 5.0 | 0.00 | 0.00 | 0.00 | 89 | 1011.0 |
| 20260905050058 | 80 | 114 | 3.0 | 5.0 | 0.00 | 0.00 | 0.00 | 89 | 1010.9 |
| 20260905045335 | 80 | 114 | 3.0 | 5.0 | 0.00 | 0.00 | 0.00 | 89 | 1010.9 |
| 20260905044835 | 80 | 115 | 4.0 | 5.0 | 0.00 | 0.00 | 0.00 | 89 | 1010.9 |
| 20260905044335 | 80 | 114 | 4.0 | 5.0 | 0.00 | 0.00 | 0.00 | 89 | 1011.2 |
| 20260905043836 | 80 | 113 | 4.0 | 5.0 | 0.00 | 0.00 | 0.00 | 89 | 1011.2 |
| 20260905043336 | 80 | 116 | 4.0 | 6.0 | 0.00 | 0.00 | 0.00 | 89 | 1011.2 |
| 20260905042832 | 80 | 116 | 3.0 | 6.0 | 0.00 | 0.00 | 0.00 | 89 | 1011.4 |
| 20260905042337 | 80 | 126 | 3.0 | 6.0 | 0.00 | 0.00 | 0.00 | 89 | 1011.4 |
| 20260905041837 | 80 | 128 | 3.0 | 6.0 | 0.00 | 0.00 | 0.00 | 89 | 1011.4 |
| 20260905041330 | 81 | 143 | 3.0 | 6.0 | 0.00 | 0.00 | 0.00 | 88 | 1011.4 |
| 20260905040827 | 81 | 132 | 3.0 | 6.0 | 0.00 | 0.00 | 0.00 | 88 | 1011.4 |
| 20260905040326 | 81 | 124 | 3.0 | 6.0 | 0.00 | 0.00 | 0.00 | 88 | 1011.4 |
| 20260905040040 | 81 | 117 | 4.0 | 6.0 | 0.00 | 0.00 | 0.00 | 88 | 1011.4 |
| 20260905035309 | 81 | 116 | 4.0 | 7.0 | 0.00 | 0.00 | 0.00 | 88 | 1011.4 |
| 20260905034808 | 81 | 116 | 4.0 | 7.0 | 0.00 | 0.00 | 0.00 | 88 | 1011.4 |
| 20260905034300 | 82 | 118 | 5.0 | 7.0 | 0.00 | 0.00 | 0.00 | 88 | 1011.4 |
| 20260905033802 | 82 | 117 | 5.0 | 7.0 | 0.00 | 0.00 | 0.00 | 88 | 1011.4 |
| 20260905033258 | 82 | 108 | 5.0 | 7.0 | 0.00 | 0.00 | 0.00 | 87 | 1011.4 |
| 20260905032803 | 82 | 111 | 4.0 | 7.0 | 0.00 | 0.00 | 0.00 | 87 | 1011.3 |
| 20260905032522 | 82 | 128 | 5.0 | 7.0 | 0.00 | 0.00 | 0.00 | 87 | 1011.3 |
| 20260905031759 | 82 | 107 | 5.0 | 7.0 | 0.00 | 0.00 | 0.00 | 87 | 1011.3 |
| 20260905031258 | 82 | 99 | 5.0 | 7.0 | 0.00 | 0.00 | 0.00 | 87 | 1010.9 |
| 20260905030802 | 82 | 105 | 5.0 | 7.0 | 0.00 | 0.00 | 0.00 | 87 | 1010.9 |
| 20260905030519 | 82 | 101 | 5.0 | 8.0 | 0.00 | 0.00 | 0.00 | 87 | 1010.9 |
| 20260905025804 | 82 | 107 | 5.0 | 8.0 | 0.00 | 0.00 | 0.00 | 87 | 1010.9 |
| 20260905025253 | 82 | 107 | 5.0 | 8.0 | 0.00 | 0.00 | 0.00 | 87 | 1010.9 |
| 20260905025020 | 82 | 104 | 5.0 | 7.0 | 0.00 | 0.00 | 0.00 | 87 | 1010.9 |
| 20260905024248 | 82 | 120 | 5.0 | 7.0 | 0.00 | 0.00 | 0.00 | 87 | 1011.0 |
| 20260905023746 | 82 | 104 | 4.0 | 7.0 | 0.00 | 0.00 | 0.00 | 87 | 1011.0 |
| 20260905023246 | 83 | 118 | 5.0 | 7.0 | 0.00 | 0.00 | 0.00 | 87 | 1011.0 |
| 20260905023021 | 83 | 114 | 5.0 | 7.0 | 0.00 | 0.00 | 0.00 | 87 | 1011.0 |
| 20260905022504 | 83 | 126 | 4.0 | 7.0 | 0.00 | 0.00 | 0.00 | 86 | 1011.0 |
| 20260905021746 | 83 | 114 | 5.0 | 7.0 | 0.00 | 0.00 | 0.00 | 86 | 1011.0 |
| 20260905021248 | 83 | 108 | 5.0 | 7.0 | 0.00 | 0.00 | 0.00 | 86 | 1011.2 |
| 20260905020745 | 83 | 107 | 5.0 | 7.0 | 0.00 | 0.00 | 0.00 | 86 | 1011.2 |
| 20260905020242 | 83 | 128 | 5.0 | 9.0 | 0.00 | 0.00 | 0.00 | 86 | 1011.2 |
| 20260905015742 | 83 | 113 | 5.0 | 9.0 | 0.00 | 0.00 | 0.00 | 86 | 1010.8 |
| 20260905015242 | 83 | 110 | 6.0 | 9.0 | 0.00 | 0.00 | 0.00 | 85 | 1010.8 |
| 20260905014743 | 84 | 111 | 6.0 | 9.0 | 0.00 | 0.00 | 0.00 | 85 | 1010.8 |
| 20260905014233 | 84 | 109 | 6.0 | 9.0 | 0.00 | 0.00 | 0.00 | 85 | 1010.8 |
| 20260905013727 | 84 | 106 | 6.0 | 10.0 | 0.00 | 0.00 | 0.00 | 85 | 1010.8 |
| 20260905013216 | 84 | 120 | 6.0 | 10.0 | 0.00 | 0.00 | 0.00 | 85 | 1010.8 |
| 20260905012710 | 84 | 139 | 6.0 | 10.0 | 0.00 | 0.00 | 0.00 | 84 | 1010.4 |
| 20260905012210 | 84 | 141 | 6.0 | 12.0 | 0.00 | 0.00 | 0.00 | 84 | 1010.4 |
| 20260905011933 | 85 | 139 | 6.0 | 12.0 | 0.00 | 0.00 | 0.00 | 83 | 1010.4 |
| 20260905011209 | 85 | 143 | 7.0 | 12.0 | 0.00 | 0.00 | 0.00 | 83 | 1010.3 |
| 20260905010708 | 85 | 90 | 7.0 | 12.0 | 0.00 | 0.00 | 0.00 | 83 | 1010.3 |
| 20260905010209 | 85 | 130 | 7.0 | 14.0 | 0.00 | 0.00 | 0.00 | 83 | 1010.3 |
| 20260905005709 | 85 | 90 | 6.0 | 14.0 | 0.00 | 0.00 | 0.00 | 82 | 1010.2 |
| 20260905005430 | 85 | 141 | 7.0 | 14.0 | 0.00 | 0.00 | 0.00 | 82 | 1010.2 |
| 20260905004705 | 86 | 90 | 7.0 | 14.0 | 0.00 | 0.00 | 0.00 | 81 | 1010.2 |
| 20260905004212 | 86 | 120 | 7.0 | 14.0 | 0.00 | 0.00 | 0.00 | 81 | 1010.2 |
| 20260905003929 | 86 | 160 | 7.0 | 14.0 | 0.00 | 0.00 | 0.00 | 81 | 1010.2 |
| 20260905003205 | 87 | 117 | 8.0 | 14.0 | 0.00 | 0.00 | 0.00 | 80 | 1010.2 |
| 20260905002705 | 87 | 112 | 7.0 | 13.0 | 0.00 | 0.00 | 0.00 | 80 | 1010.1 |
| 20260905002204 | 87 | 105 | 7.0 | 15.0 | 0.00 | 0.00 | 0.00 | 79 | 1010.1 |
| 20260905001704 | 87 | 126 | 7.0 | 15.0 | 0.00 | 0.00 | 0.00 | 79 | 1010.1 |
| 20260905001209 | 87 | 124 | 7.0 | 15.0 | 0.00 | 0.00 | 0.00 | 79 | 1010.0 |
| 20260905000155 | 87 | 143 | 7.0 | 15.0 | 0.00 | 0.00 | 0.00 | 79 | 1010.0 |
| 20260904235649 | 87 | 118 | 7.0 | 15.0 | 0.00 | 0.00 | 0.00 | 78 | 1009.8 |
| 20260904234637 | 87 | 95 | 9.0 | 15.0 | 0.00 | 0.00 | 0.00 | 78 | 1009.8 |
| 20260904234119 | 87 | 127 | 8.0 | 12.0 | 0.00 | 0.00 | 0.00 | 78 | 1009.8 |
| 20260904233610 | 87 | 152 | 8.0 | 12.0 | 0.00 | 0.00 | 0.00 | 77 | 1009.8 |
| 20260904233102 | 87 | 103 | 8.0 | 12.0 | 0.00 | 0.00 | 0.00 | 77 | 1009.8 |
| 20260904232557 | 87 | 126 | 8.0 | 12.0 | 0.00 | 0.00 | 0.00 | 77 | 1010.0 |
| 20260904232047 | 87 | 112 | 9.0 | 13.0 | 0.00 | 0.00 | 0.00 | 76 | 1010.0 |
| 20260904231541 | 87 | 116 | 8.0 | 14.0 | 0.00 | 0.00 | 0.00 | 76 | 1010.0 |
| 20260904231036 | 87 | 107 | 8.0 | 14.0 | 0.00 | 0.00 | 0.00 | 76 | 1010.0 |
| 20260904230755 | 88 | 101 | 9.0 | 15.0 | 0.00 | 0.00 | 0.00 | 75 | 1010.0 |
| 20260904230034 | 88 | 136 | 8.0 | 15.0 | 0.00 | 0.00 | 0.00 | 74 | 1010.0 |
| 20260904225534 | 88 | 122 | 9.0 | 15.0 | 0.00 | 0.00 | 0.00 | 73 | 1009.8 |
| 20260904225035 | 88 | 121 | 9.0 | 15.0 | 0.00 | 0.00 | 0.00 | 72 | 1009.8 |
| 20260904224535 | 88 | 95 | 8.0 | 14.0 | 0.00 | 0.00 | 0.00 | 71 | 1009.8 |
| 20260904224252 | 88 | 90 | 9.0 | 15.0 | 0.00 | 0.00 | 0.00 | 71 | 1009.8 |
| 20260904223031 | 89 | 116 | 9.0 | 14.0 | 0.00 | 0.00 | 0.00 | 70 | 1009.8 |
| 20260904222529 | 89 | 90 | 9.0 | 14.0 | 0.00 | 0.00 | 0.00 | 68 | 1009.8 |
| 20260904222026 | 88 | 139 | 10.0 | 15.0 | 0.00 | 0.00 | 0.00 | 68 | 1009.8 |
| 20260904221802 | 88 | 90 | 11.0 | 16.0 | 0.00 | 0.00 | 0.00 | 68 | 1009.8 |
| 20260904221243 | 88 | 116 | 12.0 | 16.0 | 0.00 | 0.00 | 0.00 | 69 | 1010.0 |
| 20260904220508 | 88 | 109 | 11.0 | 16.0 | 0.00 | 0.00 | 0.00 | 69 | 1010.0 |
| 20260904215955 | 88 | 103 | 10.0 | 16.0 | 0.00 | 0.00 | 0.00 | 69 | 1010.1 |
| 20260904215727 | 88 | 103 | 10.0 | 15.0 | 0.00 | 0.00 | 0.00 | 70 | 1010.1 |
| 20260904214930 | 89 | 104 | 10.0 | 18.0 | 0.00 | 0.00 | 0.00 | 70 | 1010.1 |
| 20260904214649 | 89 | 90 | 11.0 | 18.0 | 0.00 | 0.00 | 0.00 | 70 | 1009.9 |
| 20260904213915 | 89 | 95 | 11.0 | 18.0 | 0.00 | 0.00 | 0.00 | 70 | 1009.9 |
| 20260904213407 | 90 | 107 | 10.0 | 18.0 | 0.00 | 0.00 | 0.00 | 68 | 1009.9 |
| 20260904213127 | 90 | 141 | 11.0 | 22.0 | 0.00 | 0.00 | 0.00 | 66 | 1010.2 |
| 20260904212349 | 91 | 126 | 11.0 | 22.0 | 0.00 | 0.00 | 0.00 | 62 | 1010.2 |
| 20260904211843 | 92 | 134 | 12.0 | 22.0 | 0.00 | 0.00 | 0.00 | 60 | 1010.2 |
| 20260904211333 | 95 | 101 | 13.0 | 22.0 | 0.00 | 0.00 | 0.00 | 61 | 1010.3 |
| 20260904210819 | 96 | 112 | 10.0 | 20.0 | 0.00 | 0.00 | 0.00 | 61 | 1010.3 |
| 20260904210318 | 96 | 90 | 9.0 | 17.0 | 0.00 | 0.00 | 0.00 | 62 | 1010.3 |
| 20260904205819 | 95 | 102 | 9.0 | 17.0 | 0.00 | 0.00 | 0.00 | 62 | 1010.2 |
| 20260904205321 | 95 | 119 | 10.0 | 17.0 | 0.00 | 0.00 | 0.00 | 62 | 1010.2 |
| 20260904204820 | 96 | 101 | 10.0 | 17.0 | 0.00 | 0.00 | 0.00 | 62 | 1010.2 |
| 20260904204539 | 96 | 134 | 10.0 | 19.0 | 0.00 | 0.00 | 0.00 | 62 | 1010.2 |
| 20260904204049 | 95 | 95 | 11.0 | 19.0 | 0.00 | 0.00 | 0.00 | 62 | 1010.2 |
| 20260904203320 | 96 | 101 | 10.0 | 19.0 | 0.00 | 0.00 | 0.00 | 61 | 1010.2 |
| 20260904202815 | 97 | 77 | 8.0 | 19.0 | 0.00 | 0.00 | 0.00 | 61 | 1010.5 |
| 20260904202316 | 97 | 68 | 8.0 | 16.0 | 0.00 | 0.00 | 0.00 | 53 | 1010.5 |
| 20260904201540 | 94 | 128 | 5.0 | 15.0 | 0.00 | 0.00 | 0.00 | 54 | 1010.6 |
| 20260904200809 | 92 | 153 | 2.0 | 12.0 | 0.00 | 0.00 | 0.00 | 62 | 1010.6 |
| 20260904200310 | 92 | 257 | 3.0 | 6.0 | 0.00 | 0.00 | 0.00 | 64 | 1010.6 |
| 20260904195810 | 92 | 345 | 2.0 | 6.0 | 0.00 | 0.00 | 0.00 | 65 | 1010.7 |
| 20260904195308 | 92 | 299 | 2.0 | 6.0 | 0.00 | 0.00 | 0.00 | 69 | 1010.7 |
| 20260904195029 | 92 | 349 | 2.0 | 5.0 | 0.00 | 0.00 | 0.00 | 69 | 1010.7 |
| 20260904194308 | 91 | 330 | 1.0 | 5.0 | 0.00 | 0.00 | 0.00 | 67 | 1010.7 |
| 20260904193802 | 90 | 207 | 1.0 | 3.0 | 0.00 | 0.00 | 0.00 | 68 | 1010.7 |
| 20260904193519 | 89 | 207 | 1.0 | 3.0 | 0.00 | 0.00 | 0.00 | 69 | 1010.7 |
| 20260904192746 | 89 | 207 | 1.0 | 3.0 | 0.00 | 0.00 | 0.00 | 68 | 1010.8 |
| 20260904192240 | 88 | 207 | 2.0 | 4.0 | 0.00 | 0.00 | 0.00 | 70 | 1010.8 |
| 20260904191730 | 88 | 207 | 3.0 | 10.0 | 0.00 | 0.00 | 0.00 | 73 | 1010.8 |
| 20260904190711 | 87 | 206 | 7.0 | 10.0 | 0.00 | 0.00 | 0.00 | 74 | 1011.0 |
| 20260904190204 | 87 | 183 | 7.0 | 11.0 | 0.00 | 0.00 | 0.00 | 75 | 1011.0 |
| 20260904185704 | 88 | 224 | 6.0 | 12.0 | 0.00 | 0.00 | 0.00 | 74 | 1011.4 |
| 20260904185200 | 88 | 205 | 5.0 | 12.0 | 0.00 | 0.00 | 0.00 | 74 | 1011.4 |
| 20260904184705 | 88 | 220 | 7.0 | 17.0 | 0.00 | 0.00 | 0.00 | 74 | 1011.4 |
| 20260904184159 | 88 | 197 | 7.0 | 17.0 | 0.00 | 0.00 | 0.00 | 74 | 1011.3 |
| 20260904183931 | 89 | 183 | 7.0 | 15.0 | 0.00 | 0.00 | 0.00 | 72 | 1011.3 |
| 20260904183200 | 90 | 137 | 8.0 | 19.0 | 0.00 | 0.00 | 0.00 | 72 | 1011.3 |
| 20260904182705 | 90 | 126 | 9.0 | 19.0 | 0.00 | 0.00 | 0.00 | 69 | 1011.3 |
| 20260904182159 | 90 | 113 | 11.0 | 19.0 | 0.00 | 0.00 | 0.00 | 61 | 1011.3 |
| 20260904181922 | 91 | 103 | 9.0 | 19.0 | 0.00 | 0.00 | 0.00 | 65 | 1011.3 |
| 20260904181200 | 92 | 90 | 4.0 | 11.0 | 0.00 | 0.00 | 0.00 | 70 | 1011.4 |
| 20260904180701 | 92 | 90 | 2.0 | 11.0 | 0.00 | 0.00 | 0.00 | 69 | 1011.4 |
| 20260904180151 | 92 | 245 | 3.0 | 6.0 | 0.00 | 0.00 | 0.00 | 69 | 1011.4 |
| 20260904175659 | 92 | 247 | 4.0 | 6.0 | 0.00 | 0.00 | 0.00 | 69 | 1011.7 |
| 20260904175413 | 92 | 233 | 4.0 | 7.0 | 0.00 | 0.00 | 0.00 | 69 | 1011.7 |
| 20260904174920 | 92 | 221 | 4.0 | 11.0 | 0.00 | 0.00 | 0.00 | 69 | 1011.7 |
| 20260904174417 | 93 | 225 | 4.0 | 11.0 | 0.00 | 0.00 | 0.00 | 67 | 1011.9 |
| 20260904173928 | 94 | 251 | 4.0 | 11.0 | 0.00 | 0.00 | 0.00 | 66 | 1011.9 |
| 20260904173149 | 94 | 253 | 4.0 | 11.0 | 0.00 | 0.00 | 0.00 | 66 | 1011.9 |
| 20260904172649 | 93 | 90 | 4.0 | 10.0 | 0.00 | 0.00 | 0.00 | 67 | 1012.3 |
| 20260904172148 | 93 | 170 | 5.0 | 10.0 | 0.00 | 0.00 | 0.00 | 67 | 1012.3 |
| 20260904171651 | 92 | 170 | 5.0 | 9.0 | 0.00 | 0.00 | 0.00 | 70 | 1012.3 |
| 20260904171146 | 91 | 228 | 5.0 | 9.0 | 0.00 | 0.00 | 0.00 | 70 | 1012.4 |
| 20260904170650 | 91 | 199 | 5.0 | 2.0 | 0.00 | 0.00 | 0.00 | 71 | 1012.4 |
| 20260904170237 | 91 | 182 | 4.0 | 3.0 | 0.00 | 0.00 | 0.00 | 73 | 1012.4 |
| 20260904165902 | 90 | 220 | 4.0 | 9.0 | 0.00 | 0.00 | 0.00 | 73 | 1012.5 |
| 20260904165403 | 89 | 90 | 4.0 | 9.0 | 0.00 | 0.00 | 0.00 | 75 | 1012.5 |
| 20260904165131 | 89 | 167 | 4.0 | 9.0 | 0.00 | 0.00 | 0.00 | 77 | 1012.5 |
| 20260904164637 | 89 | 115 | 5.0 | 8.0 | 0.00 | 0.00 | 0.00 | 78 | 1012.5 |
| 20260904163900 | 88 | 138 | 5.0 | 9.0 | 0.00 | 0.00 | 0.00 | 78 | 1012.5 |
| 20260904163359 | 88 | 126 | 5.0 | 10.0 | 0.00 | 0.00 | 0.00 | 78 | 1012.5 |
| 20260904162857 | 88 | 131 | 5.0 | 10.0 | 0.00 | 0.00 | 0.00 | 78 | 1012.4 |
| 20260904162358 | 89 | 118 | 5.0 | 11.0 | 0.00 | 0.00 | 0.00 | 77 | 1012.4 |
| 20260904161857 | 90 | 133 | 4.0 | 11.0 | 0.00 | 0.00 | 0.00 | 76 | 1012.4 |
| 20260904161619 | 90 | 143 | 5.0 | 11.0 | 0.00 | 0.00 | 0.00 | 75 | 1012.3 |
| 20260904160854 | 90 | 169 | 5.0 | 11.0 | 0.00 | 0.00 | 0.00 | 75 | 1012.3 |
| 20260904160355 | 91 | 149 | 3.0 | 9.0 | 0.00 | 0.00 | 0.00 | 75 | 1012.3 |
| 20260904155854 | 90 | 175 | 4.0 | 9.0 | 0.00 | 0.00 | 0.00 | 75 | 1012.4 |
| 20260904154855 | 89 | 119 | 3.0 | 8.0 | 0.00 | 0.00 | 0.00 | 76 | 1012.4 |
| 20260904154358 | 89 | 203 | 3.0 | 7.0 | 0.00 | 0.00 | 0.00 | 78 | 1012.4 |
| 20260904153853 | 89 | 192 | 4.0 | 7.0 | 0.00 | 0.00 | 0.00 | 79 | 1012.4 |
| 20260904153341 | 88 | 218 | 3.0 | 7.0 | 0.00 | 0.00 | 0.00 | 80 | 1012.4 |
| 20260904152829 | 88 | 233 | 2.0 | 5.0 | 0.00 | 0.00 | 0.00 | 80 | 1012.4 |
| 20260904152319 | 88 | 216 | 2.0 | 5.0 | 0.00 | 0.00 | 0.00 | 81 | 1012.4 |
| 20260904151817 | 88 | 85 | 1.0 | 4.0 | 0.00 | 0.00 | 0.00 | 81 | 1012.4 |
| 20260904151316 | 87 | 85 | 1.0 | 4.0 | 0.00 | 0.00 | 0.00 | 81 | 1012.4 |
| 20260904150816 | 87 | 85 | 2.0 | 4.0 | 0.00 | 0.00 | 0.00 | 82 | 1012.4 |
| 20260904150316 | 86 | 85 | 2.0 | 5.0 | 0.00 | 0.00 | 0.00 | 83 | 1012.4 |
| 20260904150039 | 85 | 85 | 2.0 | 5.0 | 0.00 | 0.00 | 0.00 | 83 | 1012.5 |
| 20260904145315 | 84 | 69 | 3.0 | 5.0 | 0.00 | 0.00 | 0.00 | 84 | 1012.5 |
| 20260904144812 | 83 | 61 | 3.0 | 5.0 | 0.00 | 0.00 | 0.00 | 84 | 1012.5 |
| 20260904144309 | 83 | 81 | 2.0 | 4.0 | 0.00 | 0.00 | 0.00 | 85 | 1012.4 |
| 20260904143809 | 82 | 90 | 2.0 | 4.0 | 0.00 | 0.00 | 0.00 | 86 | 1012.4 |
| 20260904143307 | 81 | 95 | 2.0 | 3.0 | 0.00 | 0.00 | 0.00 | 86 | 1012.4 |
| 20260904143031 | 81 | 95 | 1.0 | 3.0 | 0.00 | 0.00 | 0.00 | 86 | 1012.3 |
| 20260904142251 | 81 | 95 | 2.0 | 4.0 | 0.00 | 0.00 | 0.00 | 87 | 1012.3 |
| 20260904141741 | 80 | 95 | 1.0 | 4.0 | 0.00 | 0.00 | 0.00 | 87 | 1012.3 |
| 20260904141449 | 79 | 128 | 0.0 | 0.0 | 0.00 | 0.00 | 0.00 | 88 | 1011.9 |
| 20260904140726 | 79 | 128 | 0.0 | 0.0 | 0.00 | 0.00 | 0.00 | 87 | 1011.9 |
| 20260904140224 | 79 | 128 | 0.0 | 0.0 | 0.00 | 0.00 | 0.00 | 88 | 1011.9 |
| 20260904135220 | 79 | 128 | 0.0 | 0.0 | 0.00 | 0.00 | 0.00 | 88 | 1011.9 |
| 20260904134941 | 79 | 131 | 0.0 | 0.0 | 0.00 | 0.00 | 0.00 | 88 | 1011.9 |
| 20260904134224 | 78 | 132 | 0.0 | 0.0 | 0.00 | 0.00 | 0.00 | 87 | 1011.8 |
| 20260904133721 | 78 | 132 | 0.0 | 0.0 | 0.00 | 0.00 | 0.00 | 87 | 1011.8 |
| 20260904133222 | 78 | 136 | 0.0 | 0.0 | 0.00 | 0.00 | 0.00 | 88 | 1011.8 |
| 20260904132721 | 78 | 151 | 0.0 | 0.0 | 0.00 | 0.00 | 0.00 | 87 | 1011.7 |
| 20260904132215 | 78 | 155 | 0.0 | 0.0 | 0.00 | 0.00 | 0.00 | 87 | 1011.7 |
| 20260904131715 | 78 | 156 | 0.0 | 0.0 | 0.00 | 0.00 | 0.00 | 87 | 1011.7 |
| 20260904131216 | 78 | 156 | 0.0 | 0.0 | 0.00 | 0.00 | 0.00 | 88 | 1011.4 |
| 20260904130716 | 78 | 155 | 0.0 | 0.0 | 0.00 | 0.00 | 0.00 | 88 | 1011.4 |
| 20260904130205 | 78 | 156 | 0.0 | 0.0 | 0.00 | 0.00 | 0.00 | 88 | 1011.4 |
| 20260904125658 | 78 | 156 | 0.0 | 0.0 | 0.00 | 0.00 | 0.00 | 88 | 1011.2 |
| 20260904125149 | 78 | 156 | 0.0 | 0.0 | 0.00 | 0.00 | 0.00 | 88 | 1011.2 |
| 20260904124910 | 78 | 156 | 0.0 | 0.0 | 0.00 | 0.00 | 0.00 | 88 | 1011.2 |
| 20260904124133 | 78 | 156 | 0.0 | 0.0 | 0.00 | 0.00 | 0.00 | 88 | 1011.2 |